Wind_Speed
53 49 49 47 49 48 48 46 46 45 43 40 38 33 31 29 28 25 23 20 19 13 13 9 10 10 11 12 12 23 25 30 29 28 37 38 44 53 54 56 62 61 52
56 54 54 53 51 51 49 48 48 47 47 44 42 40 37 34 32 31 26 24 25 11 11 13 10 10 13 15 9 21 23 30 29 31 36 40 44 49 52 55 56 59 52
62 61 58 58 54 54 51 50 50 47 48 48 45 43 41 37 35 34 29 26 25 19 17 15 17 11 11 16 15 20 23 25 34 33 38 37 46 48 53 56 55 58 60
68 63 62 61 60 58 56 53 54 49 50 49 49 47 44 40 36 36 33 28 23 21 19 14 13 11 13 17 17 19 22 24 34 34 37 37 43 47 51 54 52 56 57
72 69 66 64 62 61 59 57 54 53 48 50 50 49 46 44 39 38 33 31 27 24 19 18 12 13 16 16 17 20 23 25 33 30 33 37 37 44 49 53 53 55 54
79 78 74 70 69 65 60 59 55 53 49 49 52 52 49 47 41 40 38 36 34 29 20 19 17 19 15 19 26 22 24 28 33 27 32 35 37 43 46 48 51 54 50
86 85 79 77 72 70 66 64 60 55 53 49 50 54 48 48 46 41 41 39 38 34 25 22 23 20 20 23 23 26 27 33 31 29 30 34 38 37 42 42 50 49 49
90 92 85 81 79 75 71 68 65 60 56 54 51 54 53 48 48 44 42 39 38 35 33 26 26 25 23 24 24 28 28 31 31 24 29 35 35 38 44 39 46 44 50
96 96 90 84 83 79 75 73 69 65 61 58 56 54 56 51 49 49 45 42 41 39 37 32 32 27 24 23 27 27 28 31 32 24 26 28 34 39 38 37 44 42 47
102 102 97 90 89 84 77 75 74 70 65 62 60 58 56 55 50 50 48 44 42 43 39 37 34 28 27 25 29 28 33 36 26 20 22 23 26 37 36 43 39 40 45
103 98 99 97 92 86 83 77 75 74 70 65 62 60 60 58 54 54 54 50 46 43 43 40 42 31 27 30 32 33 29 30 32 22 22 23 27 34 38 38 43 37 47
111 105 106 103 100 93 88 86 81 78 74 70 63 62 64 63 58 54 55 52 49 48 49 47 45 36 32 33 29 28 30 33 27 22 21 20 24 33 37 37 41 37 41
107 109 107 108 105 96 90 86 85 79 77 72 70 64 66 66 60 57 59 57 52 51 51 50 44 37 38 36 31 26 24 25 23 23 23 25 26 32 37 33 36 39 34
108 107 103 109 106 100 86 87 89 81 77 76 75 72 69 68 65 63 62 61 56 52 51 45 45 41 41 38 34 28 26 27 34 27 20 29 23 28 31 30 33 37 38
107 110 98 100 105 108 97 82 84 85 80 76 78 72 73 71 68 66 64 62 61 54 52 48 46 46 45 42 41 33 29 25 31 26 28 28 24 25 31 31 35 37 41
110 110 104 101 95 92 105 99 97 92 89 84 82 78 73 70 69 67 66 64 62 57 54 52 49 52 50 46 45 38 30 30 29 37 35 29 29 28 30 34 34 34 41
115 111 107 104 99 99 98 101 101 96 96 94 89 83 80 74 70 69 70 68 65 61 59 58 56 55 53 52 46 41 37 40 33 42 42 35 35 31 35 32 32 38 39
119 113 108 107 105 98 105 100 99 96 97 95 92 87 82 77 74 70 70 72 72 67 64 63 61 60 57 53 52 49 40 39 42 46 43 43 37 35 37 38 35 38 34
121 117 111 109 109 104 103 106 101 103 97 87 89 94 88 78 77 73 74 77 72 71 69 66 63 65 61 57 55 53 50 44 46 50 45 45 41 39 36 38 35 39 39
126 122 119 114 112 106 100 105 109 106 100 91 80 76 93 73 76 77 75 76 75 72 70 67 67 64 61 57 55 52 52 51 50 50 49 45 44 40 42 45 46 49 50
136 131 127 128 117 112 109 106 109 111 104 97 93 89 84 94 73 77 77 84 81 75 70 64 62 63 66 60 56 56 54 50 54 53 52 46 48 45 44 44 43 45 48
143 144 135 128 123 115 109 109 115 114 114 107 103 98 85 83 82 69 66 79 77 72 74 70 67 65 63 62 59 59 52 56 53 55 54 49 49 49 48 47 46 47 47
148 146 140 133 127 118 116 112 115 119 117 113 103 100 93 86 89 83 74 81 79 72 73 72 69 72 69 64 59 60 58 59 58 56 55 51 51 51 50 48 49 48 50
152 147 140 135 128 126 121 121 115 113 110 116 110 99 93 86 80 84 81 77 78 82 81 75 70 71 69 65 63 60 55 59 57 57 53 54 51 50 51 52 53 53 54
151 147 145 140 130 135 131 122 119 110 112 118 121 111 99 92 81 89 93 90 82 78 80 74 68 67 64 62 61 61 61 64 62 61 62 56 57 55 55 55 54 53 56
154 150 151 145 147 136 131 132 125 118 114 115 122 118 107 99 89 85 88 86 82 89 85 75 75 75 71 61 64 66 63 62 62 61 62 58 60 58 58 58 57 58 59
Wind_Direction
220 216 218 217 218 214 209 209 210 209 213 216 223 229 232 233 238 243 246 252 262 287 310 324 282 293 306 335 5 3 5 3 360 2 359 358 354 355 4 0 15 23 27
219 222 223 217 217 218 214 214 215 212 213 215 222 225 231 235 238 244 251 255 265 269 305 324 339 333 303 321 349 355 353 353 3 8 1 357 355 357 2 360 10 20 24
215 220 224 218 215 216 217 215 216 220 216 216 218 225 231 235 243 251 252 257 266 261 272 298 310 324 329 323 305 329 334 340 351 1 1 353 354 358 359 360 359 10 19
216 219 221 221 217 215 216 216 216 218 221 221 221 224 229 233 242 249 252 256 261 268 284 286 291 312 315 315 318 326 337 338 343 341 350 350 349 354 354 357 359 2 13
219 218 219 222 220 217 215 217 217 219 224 224 223 225 228 232 237 246 249 255 257 267 277 281 288 303 310 321 325 325 342 335 339 345 347 346 351 356 352 355 354 359 6
218 220 221 222 220 217 216 214 217 220 223 227 226 224 227 232 238 241 245 251 253 261 273 272 284 290 305 320 320 329 331 335 338 339 343 349 342 349 349 354 351 357 6
218 218 220 221 221 219 218 218 219 224 224 227 228 226 226 232 237 241 245 246 248 255 264 272 276 283 302 313 318 320 328 326 331 333 345 345 343 347 348 349 351 356 3
219 220 219 221 223 222 221 222 223 225 227 227 229 227 225 229 236 240 244 250 250 251 257 267 270 283 295 300 315 319 329 331 325 327 344 343 338 344 342 345 351 357 358
218 222 219 222 222 224 223 224 222 226 228 228 228 227 228 228 232 238 242 247 251 254 254 257 265 272 287 296 303 313 322 325 327 324 334 339 336 337 342 341 345 355 355
215 219 223 216 221 222 220 225 225 225 227 228 227 229 229 228 231 235 236 242 247 253 256 256 261 266 275 287 295 306 307 313 326 327 331 327 326 336 338 337 342 343 349
218 221 218 219 215 218 220 223 229 229 227 227 230 230 231 229 230 233 235 238 245 251 254 254 260 262 267 276 283 287 296 308 313 318 321 324 333 320 330 330 332 336 342
217 220 222 219 219 218 221 221 225 230 229 227 226 230 230 228 229 232 234 236 241 248 253 257 254 256 263 265 273 280 293 298 303 307 308 311 328 319 321 323 321 329 334
214 220 222 220 221 220 219 221 221 224 229 229 226 225 229 230 230 231 233 235 237 244 249 256 252 251 258 260 267 274 285 298 290 293 301 305 319 300 313 317 322 324 337
212 213 219 219 222 224 218 221 219 219 225 228 226 225 227 228 232 231 233 235 236 240 246 246 245 248 255 255 263 270 281 289 290 287 301 309 307 297 299 306 317 315 326
213 211 213 218 218 222 222 215 218 220 222 226 226 225 226 228 230 232 232 234 235 237 242 243 240 244 248 254 261 265 271 275 283 283 292 302 298 297 294 299 312 312 316
215 212 210 212 214 217 220 221 219 219 222 224 225 226 225 226 229 232 234 234 236 237 240 240 241 244 249 252 256 262 266 267 274 271 278 278 283 289 300 306 305 311 311
213 213 211 211 210 213 216 217 220 221 219 222 223 223 226 227 228 231 233 236 239 239 240 240 244 243 247 253 259 264 256 264 267 264 284 279 286 282 287 287 300 299 304
212 214 212 212 209 212 216 215 215 219 218 220 222 222 225 226 228 230 233 236 237 240 241 241 243 245 248 253 260 263 260 266 259 267 280 276 281 282 282 285 285 291 295
211 213 213 212 212 210 212 215 214 214 215 216 220 222 224 224 227 228 232 237 237 239 240 242 243 246 248 252 258 261 257 255 261 269 275 278 280 280 279 282 285 285 292
211 212 213 214 212 209 212 213 214 214 212 212 215 229 220 230 226 230 232 234 238 239 240 243 244 245 250 251 255 256 255 258 260 265 270 272 279 277 275 282 286 287 292
209 212 211 215 210 211 212 212 213 215 210 212 206 215 227 221 219 232 234 236 237 239 240 240 244 246 247 248 251 252 250 253 261 264 267 270 272 276 281 283 283 283 286
209 210 210 212 211 208 209 212 213 213 211 209 210 203 208 218 212 220 225 232 235 242 243 240 242 244 244 247 247 248 249 258 254 257 262 270 273 273 277 279 281 284 283
211 212 210 211 212 210 212 212 212 212 212 210 209 211 207 212 214 220 222 236 230 232 238 240 240 241 244 244 244 250 247 252 254 255 259 266 269 270 274 279 280 282 281
211 213 211 211 212 211 214 213 214 213 212 210 211 207 203 206 213 217 212 221 231 235 238 239 238 237 240 243 243 245 249 251 255 256 259 264 267 267 272 279 283 281 284
210 212 212 212 213 213 211 213 211 211 212 212 210 207 200 201 209 212 210 222 227 228 233 234 233 239 238 237 240 244 242 245 252 256 257 266 264 265 268 275 280 282 283
209 211 213 211 213 214 214 214 214 213 212 215 212 211 206 201 206 211 215 213 218 227 229 227 233 236 239 237 240 236 243 245 250 253 254 261 263 265 269 274 280 281 282
Height
10850 10854 10858 10863 10867 10871 10876 10880 10883 10888 10893 10897 10901 10905 10909 10913 10915 10919 10921 10924 10926 10929 10931 10932 10933 10934 10934 10934 10934 10933 10931 10930 10928 10925 10922 10920 10915 10912 10908 10903 10899 10893 10888
10842 10846 10851 10856 10860 10865 10870 10874 10878 10882 10887 10892 10896 10900 10904 10908 10911 10914 10918 10921 10923 10927 10928 10929 10930 10932 10932 10933 10931 10930 10930 10928 10928 10925 10921 10918 10915 10912 10908 10905 10901 10897 10892
10830 10836 10842 10848 10853 10858 10863 10868 10873 10877 10882 10887 10892 10895 10899 10903 10907 10910 10915 10918 10920 10924 10926 10928 10928 10928 10930 10930 10930 10930 10930 10928 10926 10924 10921 10918 10914 10911 10908 10903 10902 10900 10896
10821 10827 10833 10840 10846 10850 10856 10861 10866 10872 10876 10881 10886 10891 10895 10899 10903 10906 10910 10914 10917 10920 10923 10926 10927 10926 10927 10927 10928 10928 10928 10927 10926 10922 10920 10918 10913 10911 10907 10904 10901 10899 10896
10809 10817 10822 10829 10836 10842 10848 10854 10859 10865 10871 10876 10881 10886 10890 10895 10899 10902 10907 10910 10913 10917 10920 10922 10924 10925 10925 10924 10925 10925 10926 10925 10925 10920 10920 10918 10914 10911 10907 10904 10901 10900 10897
10794 10805 10810 10818 10825 10832 10840 10846 10852 10858 10865 10870 10875 10880 10885 10889 10894 10898 10902 10907 10910 10913 10916 10919 10921 10922 10922 10922 10922 10922 10922 10923 10922 10920 10919 10917 10914 10912 10908 10904 10901 10898 10896
10776 10788 10796 10805 10814 10821 10829 10838 10843 10850 10857 10863 10869 10874 10879 10884 10889 10893 10897 10902 10905 10909 10913 10915 10918 10920 10920 10920 10919 10919 10920 10920 10921 10919 10917 10916 10914 10912 10909 10904 10900 10898 10895
10756 10769 10784 10793 10803 10811 10819 10827 10834 10841 10848 10855 10862 10868 10872 10878 10883 10888 10893 10896 10900 10905 10909 10912 10914 10916 10918 10917 10917 10917 10917 10917 10919 10918 10916 10914 10913 10910 10908 10904 10901 10897 10893
10737 10752 10771 10780 10790 10800 10809 10816 10825 10832 10839 10846 10853 10860 10866 10872 10877 10882 10887 10892 10896 10900 10905 10908 10910 10913 10914 10915 10914 10914 10914 10915 10916 10916 10914 10913 10911 10908 10907 10904 10902 10897 10893
10725 10735 10757 10768 10778 10788 10799 10807 10815 10823 10830 10837 10844 10851 10858 10865 10871 10875 10881 10885 10890 10894 10899 10903 10906 10910 10911 10911 10911 10911 10913 10913 10914 10913 10911 10912 10909 10907 10906 10903 10900 10897 10894
10719 10723 10743 10754 10765 10776 10786 10797 10806 10814 10821 10828 10836 10844 10851 10858 10864 10868 10873 10879 10884 10888 10892 10898 10902 10906 10908 10908 10909 10911 10910 10911 10911 10911 10910 10908 10907 10906 10904 10902 10900 10897 10894
10700 10705 10722 10737 10751 10764 10775 10785 10795 10802 10809 10818 10827 10836 10843 10849 10855 10861 10867 10873 10878 10881 10886 10891 10897 10901 10904 10905 10905 10908 10908 10908 10908 10907 10907 10905 10905 10904 10903 10900 10898 10895 10893
10677 10692 10705 10722 10734 10749 10762 10771 10780 10791 10800 10808 10816 10825 10832 10839 10847 10853 10859 10864 10871 10874 10879 10884 10891 10895 10899 10900 10900 10905 10904 10905 10905 10904 10903 10903 10902 10902 10900 10899 10896 10893 10891
10656 10671 10686 10705 10720 10735 10746 10758 10764 10777 10788 10796 10804 10813 10822 10830 10837 10844 10850 10856 10862 10867 10873 10879 10883 10889 10892 10894 10895 10899 10900 10902 10903 10900 10898 10898 10899 10899 10898 10896 10894 10892 10889
10635 10650 10660 10680 10698 10719 10732 10740 10753 10766 10777 10785 10792 10800 10811 10819 10827 10833 10840 10847 10852 10859 10865 10872 10875 10881 10885 10887 10888 10893 10895 10897 10899 10896 10896 10896 10896 10895 10894 10892 10890 10889 10887
10612 10626 10640 10658 10683 10697 10711 10723 10738 10749 10762 10769 10779 10789 10797 10806 10815 10822 10830 10837 10842 10849 10857 10863 10868 10873 10878 10879 10880 10886 10889 10890 10893 10892 10891 10892 10891 10892 10891 10888 10886 10885 10883
10590 10604 10623 10636 10655 10677 10692 10705 10720 10735 10742 10753 10766 10774 10783 10795 10804 10811 10819 10826 10832 10840 10846 10853 10860 10865 10869 10871 10872 10878 10882 10883 10886 10885 10886 10886 10885 10886 10885 10883 10882 10880 10880
10568 10588 10604 10620 10636 10654 10674 10687 10701 10716 10724 10740 10754 10762 10771 10784 10792 10802 10808 10813 10821 10830 10836 10843 10851 10855 10859 10864 10865 10869 10874 10875 10877 10878 10879 10879 10879 10879 10879 10877 10877 10876 10875
10543 10563 10586 10599 10618 10633 10649 10667 10682 10694 10709 10730 10744 10754 10763 10773 10782 10792 10799 10800 10809 10818 10824 10832 10840 10845 10850 10856 10856 10860 10865 10867 10869 10872 10873 10872 10871 10871 10872 10871 10870 10869 10869
10519 10539 10559 10579 10595 10613 10627 10644 10661 10675 10696 10716 10737 10756 10758 10767 10772 10780 10787 10790 10797 10805 10813 10821 10828 10835 10840 10846 10847 10851 10856 10858 10860 10863 10866 10867 10866 10866 10866 10866 10864 10863 10862
10486 10507 10532 10543 10573 10591 10608 10627 10643 10665 10679 10696 10717 10736 10742 10753 10762 10769 10777 10780 10784 10793 10801 10810 10818 10825 10829 10834 10839 10841 10846 10849 10852 10855 10857 10858 10859 10858 10858 10857 10856 10855 10855
10467 10477 10500 10520 10545 10568 10587 10605 10617 10637 10656 10671 10688 10703 10725 10735 10745 10753 10760 10766 10773 10779 10791 10799 10806 10812 10816 10822 10828 10832 10835 10840 10842 10844 10848 10851 10850 10850 10850 10849 10849 10847 10847
10444 10461 10486 10505 10527 10556 10569 10582 10595 10610 10633 10652 10673 10694 10707 10718 10728 10739 10748 10750 10762 10764 10776 10785 10791 10798 10805 10811 10816 10822 10824 10828 10831 10835 10839 10842 10842 10841 10841 10842 10841 10839 10838
10424 10448 10475 10494 10513 10530 10549 10563 10581 10597 10620 10641 10657 10673 10687 10700 10707 10719 10730 10735 10747 10756 10764 10772 10777 10785 10793 10800 10806 10809 10813 10816 10822 10825 10829 10831 10832 10832 10831 10832 10832 10831 10830
10405 10429 10454 10476 10497 10507 10524 10541 10560 10580 10599 10613 10629 10650 10665 10680 10692 10705 10717 10724 10735 10743 10753 10760 10766 10772 10781 10788 10793 10797 10803 10808 10812 10815 10818 10820 10821 10823 10822 10821 10824 10823 10822
10382 10408 10428 10459 10466 10489 10512 10525 10544 10562 10581 10594 10616 10637 10654 10664 10676 10691 10701 10710 10721 10727 10739 10746 10753 10761 10771 10777 10781 10785 10791 10798 10802 10805 10806 10809 10809 10810 10812 10812 10813 10813 10814